Location: Tamazert
(32.6352°N, 5.2072°W)
Time: 15:55:16
(UTC+00:00)

USA 229 - Pass Details

Date: 22 May 2022
Orbit: 938 x 1274 km, 63.4° (Epoch: 24 May)

Event Time Altitude Azimuth Distance (km) Brightness Sun altitude
Rises 02:11:41 0° 332° (NNW) 4,030 7.1 -30.4°
Reaches altitude 10° 02:14:22 10° 336° (NNW) 3,109 6.5 -30.1°
Maximum altitude 02:21:53 67° 58° (ENE) 1,334 4.2 -29.2°
Drops below altitude 10° 02:29:45 10° 140° (SE) 3,252 6.1 -28.3°
Sets 02:32:36 0° 143° (SE) 4,225 6.7 -27.9°
